User: anonymous   Login
Location: Unspecified
(0.0000°N, 0.0000°E)
Time: 13:43:44
(UTC+00:00)
Language:

BEESAT 3 - Orbit

View from above orbital plane
View from above orbital plane
View from above satellite
View from above satellite

Ground track
Ground track

The orbit data is extracted from the following two-line orbital elements,

1 39134U 13015E   17114.90953528 +.00004658 +00000-0 +23701-3 0  9994
2 39134 064.8705 038.4019 0033469 282.6602 077.0783 15.17621167221013
Epoch (UTC): 24 April 2017 21:49:43
Eccentricity: 0.0033469
inclination: 64.8705°
perigee height: 490 km
apogee height: 536 km
right ascension of ascending node: 38.4019°
argument of perigee: 282.6602°
revolutions per day: 15.17621167
mean anomaly at epoch: 77.0783°
orbit number at epoch: 22101

The dashed part of the orbit path shows where the satellite is in the earth's shadow,  

DLR